User: anonymous   Login
Location: Bowman Observatory
(41.0326°N, 73.6210°W)
Time: 07:42:20
(UTC-05:00)
Language:

Cosmos 2297 - Orbit

View from above orbital plane
View from above orbital plane
View from above satellite
View from above satellite

Ground track
Ground track

The orbit data is extracted from the following two-line orbital elements,

1 23404U 94077A   16045.20121756  .00000322  00000-0  19592-3 0  9996
2 23404  71.0125 236.5755 0015507 178.3401 181.7775 14.13471850 94975
Epoch (UTC): 14 February 2016 04:49:45
Eccentricity: 0.0015507
inclination: 71.0125°
perigee height: 836 km
apogee height: 859 km
right ascension of ascending node: 236.5755°
argument of perigee: 178.3401°
revolutions per day: 14.13471850
mean anomaly at epoch: 181.7775°
orbit number at epoch: 9497

The dashed part of the orbit path shows where the satellite is in the earth's shadow,  

DLR